TimeICT,TemperatureF,Dew PointF,Humidity,Sea Level PressureIn,VisibilityMPH,Wind Direction,Wind SpeedMPH,Gust SpeedMPH,PrecipitationIn,Events,Conditions,WindDirDegrees,DateUTC
12:30 AM,77.0,71.6,83,29.98,6.2,Calm,Calm,-,N/A,,Scattered Clouds,0,2012-10-18 17:30:00
1:00 AM,78,73,80,29.93,6,Calm,Calm,,,,Scattered Clouds,,2012-10-18 18:00:00
1:00 AM,77.0,71.6,83,29.98,6.2,Calm,Calm,-,N/A,,Scattered Clouds,0,2012-10-18 18:00:00
2:30 AM,75.2,69.8,83,29.98,6.2,Calm,Calm,-,N/A,,Partly Cloudy,0,2012-10-18 19:30:00
3:00 AM,75.2,69.8,83,29.98,6.2,NNE,4.6,-,N/A,,Partly Cloudy,30,2012-10-18 20:00:00
3:30 AM,75.2,69.8,83,29.98,6.2,NNE,4.6,-,N/A,,Partly Cloudy,30,2012-10-18 20:30:00
4:00 AM,75.2,69.8,83,29.98,6.2,NNE,2.3,-,N/A,,Partly Cloudy,30,2012-10-18 21:00:00
4:30 AM,75.2,69.8,83,29.98,6.2,Calm,Calm,-,N/A,,Partly Cloudy,0,2012-10-18 21:30:00
5:00 AM,73.4,69.8,88,29.98,6.2,Calm,Calm,-,N/A,,Partly Cloudy,0,2012-10-18 22:00:00
5:30 AM,73.4,69.8,88,29.98,5.0,Calm,Calm,-,N/A,,Partly Cloudy,0,2012-10-18 22:30:00
6:00 AM,73.4,69.8,88,30.01,5.0,Calm,Calm,-,N/A,,Partly Cloudy,0,2012-10-18 23:00:00
6:30 AM,73.4,69.8,88,30.01,5.0,Calm,Calm,-,N/A,,Partly Cloudy,0,2012-10-18 23:30:00
7:00 AM,74,71,89,29.97,6,Calm,Calm,,,,Mist,,2012-10-19 00:00:00
7:00 AM,73.4,69.8,88,30.01,5.0,Calm,Calm,-,N/A,,Scattered Clouds,0,2012-10-19 00:00:00
7:30 AM,75.2,69.8,83,30.04,5.0,Calm,Calm,-,N/A,,Partly Cloudy,0,2012-10-19 00:30:00
8:00 AM,77.0,69.8,78,30.04,5.0,WNW,1.2,-,N/A,,Partly Cloudy,290,2012-10-19 01:00:00
8:30 AM,77.0,69.8,78,30.04,5.0,SSW,2.3,-,N/A,,Scattered Clouds,210,2012-10-19 01:30:00
9:00 AM,78.8,69.8,74,30.04,5.0,Calm,Calm,-,N/A,,Scattered Clouds,0,2012-10-19 02:00:00
9:30 AM,80.6,69.8,70,30.04,6.2,WNW,2.3,-,N/A,,Partly Cloudy,300,2012-10-19 02:30:00
10:00 AM,82.4,69.8,66,30.04,6.2,East,2.3,-,N/A,,Scattered Clouds,100,2012-10-19 03:00:00
10:30 AM,84.2,69.8,62,30.04,6.2,SE,3.5,-,N/A,,Scattered Clouds,130,2012-10-19 03:30:00
11:00 AM,84.2,69.8,62,30.04,6.2,SSW,4.6,-,N/A,,Scattered Clouds,210,2012-10-19 04:00:00
11:30 AM,84.2,69.8,62,30.01,6.2,SSW,4.6,-,N/A,,Scattered Clouds,210,2012-10-19 04:30:00
12:00 PM,86.0,68.0,55,30.01,6.2,SSW,5.8,-,N/A,,Scattered Clouds,200,2012-10-19 05:00:00
12:30 PM,87.8,68.0,52,29.98,6.2,South,4.6,-,N/A,,Scattered Clouds,180,2012-10-19 05:30:00
1:00 PM,90,71,44,29.89,6,SSW,4.6,,,,Scattered Clouds,210,2012-10-19 06:00:00
1:00 PM,87.8,64.4,46,29.98,6.2,SSW,4.6,-,N/A,,Scattered Clouds,210,2012-10-19 06:00:00
1:30 PM,87.8,66.2,49,29.95,6.2,SSW,6.9,-,N/A,,Partly Cloudy,200,2012-10-19 06:30:00
2:00 PM,89.6,66.2,46,29.92,6.2,South,6.9,-,N/A,,Partly Cloudy,170,2012-10-19 07:00:00
2:30 PM,89.6,62.6,40,29.92,6.2,South,5.8,-,N/A,,Partly Cloudy,170,2012-10-19 07:30:00
3:00 PM,89.6,62.6,40,29.89,6.2,South,5.8,-,N/A,,Partly Cloudy,170,2012-10-19 08:00:00
3:30 PM,91.4,64.4,41,29.89,6.2,ESE,3.5,-,N/A,,Partly Cloudy,110,2012-10-19 08:30:00
4:00 PM,89.6,60.8,38,29.89,6.2,SSW,4.6,-,N/A,,Partly Cloudy,210,2012-10-19 09:00:00
4:30 PM,89.6,62.6,40,29.89,6.2,SSE,4.6,-,N/A,,Partly Cloudy,150,2012-10-19 09:30:00
5:00 PM,89.6,62.6,40,29.92,6.2,SSE,4.6,-,N/A,,Partly Cloudy,150,2012-10-19 10:00:00
5:30 PM,89.6,62.6,40,29.92,6.2,South,4.6,-,N/A,,Partly Cloudy,190,2012-10-19 10:30:00
6:00 PM,86.0,68.0,55,29.92,6.2,West,4.6,-,N/A,,Partly Cloudy,270,2012-10-19 11:00:00
6:30 PM,84.2,68.0,58,29.95,6.2,West,4.6,-,N/A,,Partly Cloudy,270,2012-10-19 11:30:00
7:00 PM,84,71,56,29.89,6,Calm,Calm,,,,Scattered Clouds,,2012-10-19 12:00:00
7:00 PM,82.4,66.2,58,29.95,6.2,WNW,2.3,-,N/A,,Partly Cloudy,290,2012-10-19 12:00:00
7:30 PM,82.4,68.0,62,29.98,6.2,NW,2.3,-,N/A,,Partly Cloudy,310,2012-10-19 12:30:00
8:00 PM,82.4,66.2,58,29.98,6.2,NNW,3.5,-,N/A,,Partly Cloudy,330,2012-10-19 13:00:00
8:30 PM,82.4,68.0,62,29.98,6.2,WNW,2.3,-,N/A,,Partly Cloudy,300,2012-10-19 13:30:00
9:00 PM,80.6,68.0,65,30.01,6.2,SW,3.5,-,N/A,,Partly Cloudy,230,2012-10-19 14:00:00
9:30 PM,80.6,68.0,65,30.01,6.2,West,2.3,-,N/A,,Partly Cloudy,270,2012-10-19 14:30:00
10:00 PM,78.8,68.0,69,30.01,6.2,Calm,Calm,-,N/A,,Partly Cloudy,0,2012-10-19 15:00:00
10:30 PM,78.8,68.0,69,30.01,6.2,Calm,Calm,-,N/A,,Partly Cloudy,0,2012-10-19 15:30:00
11:00 PM,77.0,69.8,78,30.01,6.2,West,2.3,-,N/A,,Partly Cloudy,270,2012-10-19 16:00:00
11:30 PM,77.0,68.0,74,30.01,6.2,SW,2.3,-,N/A,,Partly Cloudy,220,2012-10-19 16:30:00